Tracking 17631 objects as of 6-May-2016
HD Live streaming from Space Station
objects crossing your sky now

SCOUT X-4 DEB

Track SCOUT X-4 DEB now!
10-day predictions


NORAD ID: 2088
Int'l Code: 1965-093D
Perigee: 662.9 km
Apogee: 778.4 km
Inclination: 59.7 °
Period: 99.1 minutes
Semi major axis: 7091 km
RCS: 0.0298 m2 (small)
Launch date: November 19, 1965
Source: United States (US)
Launch site: WALLOPS ISLAND (WLPIS)

Note: This is SATELLITE DEBRIS
Your satellite tracking list
Your tracking list is empty





NASA's NSSDC Master Catalog

Two Line Element Set (TLE):
1 02088U 65093D   16125.75429612  .00000242  00000-0  92453-4 0  9997
2 02088  59.7199  84.0042 0081411 204.6886 155.0252 14.53728263636597
Source of the keplerian elements: AFSPC

N2YO: 351